Time,TemperatureF,DewpointF,PressureIn,WindDirection,WindDirectionDegrees,WindSpeedMPH,WindSpeedGustMPH,Humidity,HourlyPrecipIn,Conditions,Clouds,dailyrainin,SoftwareType,DateUTC
2013-06-14 00:01:00,50.0,49.6,27.99,South,180,3.0,7.0,99,0.07,,,1.55,meteohub,2013-06-14 04:01:00,
2013-06-14 00:02:00,50.0,49.6,27.99,NE,45,4.0,7.0,99,0.07,,,1.55,meteohub,2013-06-14 04:02:00,
2013-06-14 00:04:00,50.0,49.6,27.99,South,180,2.0,7.0,99,0.07,,,1.55,meteohub,2013-06-14 04:04:00,
2013-06-14 00:09:00,49.8,49.5,27.99,West,270,2.0,7.0,99,0.07,,,0.00,meteohub,2013-06-14 04:09:00,
2013-06-14 00:13:00,49.8,49.5,27.99,SW,225,2.0,7.0,99,0.07,,,0.01,meteohub,2013-06-14 04:13:00,
2013-06-14 00:18:00,49.8,49.5,27.99,SW,225,3.0,4.0,99,0.07,,,0.02,meteohub,2013-06-14 04:18:00,
2013-06-14 00:23:00,49.6,49.5,27.99,SW,225,2.0,4.0,99,0.08,,,0.04,meteohub,2013-06-14 04:23:00,
2013-06-14 00:28:00,49.6,49.5,27.99,SW,225,1.0,4.0,99,0.08,,,0.05,meteohub,2013-06-14 04:28:00,
2013-06-14 00:33:00,49.6,49.5,27.99,West,270,2.0,4.0,99,0.09,,,0.06,meteohub,2013-06-14 04:33:00,
2013-06-14 00:38:00,49.5,49.3,27.99,North,0,3.0,3.0,99,0.09,,,0.06,meteohub,2013-06-14 04:38:00,
2013-06-14 00:43:00,49.5,49.3,27.99,SW,225,5.0,5.0,99,0.09,,,0.07,meteohub,2013-06-14 04:43:00,
2013-06-14 00:48:00,49.6,49.5,27.99,North,0,9.0,9.0,99,0.09,,,0.07,meteohub,2013-06-14 04:48:00,
2013-06-14 00:53:00,49.6,49.5,27.99,North,0,4.0,9.0,99,0.08,,,0.07,meteohub,2013-06-14 04:53:00,
2013-06-14 00:58:00,49.6,49.5,28.00,West,270,6.0,9.0,99,0.09,,,0.08,meteohub,2013-06-14 04:58:00,
2013-06-14 01:03:00,49.6,49.5,28.00,NW,315,3.0,9.0,99,0.09,,,0.08,meteohub,2013-06-14 05:03:00,
2013-06-14 01:09:00,49.6,49.5,28.00,North,0,8.0,8.0,99,0.07,,,0.08,meteohub,2013-06-14 05:09:00,
2013-06-14 01:14:00,49.6,49.5,28.00,NW,315,5.0,12.0,99,0.07,,,0.08,meteohub,2013-06-14 05:14:00,
2013-06-14 01:19:00,49.6,49.5,28.00,North,0,3.0,12.0,99,0.06,,,0.08,meteohub,2013-06-14 05:19:00,
2013-06-14 01:24:00,49.5,48.6,28.01,WNW,293,3.0,12.0,97,0.06,,,0.09,meteohub,2013-06-14 05:24:00,
2013-06-14 01:29:00,49.5,48.4,28.01,NW,315,3.0,11.0,96,0.05,,,0.09,meteohub,2013-06-14 05:29:00,
2013-06-14 01:34:00,49.5,48.0,28.01,NW,315,4.0,11.0,95,0.04,,,0.09,meteohub,2013-06-14 05:34:00,
2013-06-14 01:39:00,49.5,47.8,28.02,North,0,5.0,11.0,94,0.04,,,0.09,meteohub,2013-06-14 05:39:00,
2013-06-14 01:44:00,49.1,47.5,28.02,NNW,338,6.0,10.0,94,0.02,,,0.09,meteohub,2013-06-14 05:44:00,
2013-06-14 01:49:00,49.3,47.1,28.02,NNW,338,11.0,11.0,92,0.02,,,0.09,meteohub,2013-06-14 05:49:00,
2013-06-14 01:54:00,49.5,46.6,28.02,NW,315,4.0,12.0,90,0.02,,,0.09,meteohub,2013-06-14 05:54:00,
2013-06-14 01:59:00,49.1,46.2,28.03,NE,45,6.0,12.0,90,0.01,,,0.09,meteohub,2013-06-14 05:59:00,
2013-06-14 02:04:00,48.9,45.9,28.02,SW,225,4.0,12.0,89,0.01,,,0.09,meteohub,2013-06-14 06:04:00,
2013-06-14 02:09:00,48.7,45.3,28.02,South,180,2.0,10.0,88,0.01,,,0.09,meteohub,2013-06-14 06:09:00,
2013-06-14 02:14:00,48.6,45.1,28.02,South,180,2.0,8.0,88,0.01,,,0.09,meteohub,2013-06-14 06:14:00,
2013-06-14 02:19:00,48.2,45.1,28.02,North,0,2.0,8.0,89,0.01,,,0.09,meteohub,2013-06-14 06:19:00,
2013-06-14 02:25:00,48.0,45.5,28.01,SE,135,4.0,4.0,91,0.00,,,0.09,meteohub,2013-06-14 06:25:00,
2013-06-14 02:30:00,47.8,45.7,28.01,SW,225,3.0,4.0,92,0.01,,,0.11,meteohub,2013-06-14 06:30:00,
2013-06-14 02:35:00,47.8,45.7,28.02,SE,135,7.0,7.0,92,0.01,,,0.11,meteohub,2013-06-14 06:35:00,
2013-06-14 02:40:00,48.4,45.9,28.02,NW,315,2.0,7.0,91,0.01,,,0.11,meteohub,2013-06-14 06:40:00,
2013-06-14 02:45:00,48.0,45.5,28.02,West,270,5.0,7.0,91,0.01,,,0.11,meteohub,2013-06-14 06:45:00,
2013-06-14 02:50:00,47.8,45.7,28.03,NNE,23,4.0,7.0,92,0.01,,,0.11,meteohub,2013-06-14 06:50:00,
2013-06-14 02:55:00,47.8,45.9,28.03,West,270,2.0,8.0,93,0.02,,,0.12,meteohub,2013-06-14 06:55:00,
2013-06-14 03:00:00,47.7,45.7,28.02,East,90,0.0,8.0,93,0.02,,,0.12,meteohub,2013-06-14 07:00:00,
2013-06-14 03:05:00,47.7,46.0,28.02,SE,135,2.0,4.0,94,0.02,,,0.12,meteohub,2013-06-14 07:05:00,
2013-06-14 03:10:00,47.8,46.2,28.02,NW,315,2.0,4.0,94,0.02,,,0.12,meteohub,2013-06-14 07:10:00,
2013-06-14 03:15:00,47.8,46.2,28.02,NE,45,2.0,4.0,94,0.02,,,0.12,meteohub,2013-06-14 07:15:00,
2013-06-14 03:20:00,47.7,46.0,28.03,SE,135,0.0,3.0,94,0.04,,,0.13,meteohub,2013-06-14 07:20:00,
2013-06-14 03:25:00,47.7,46.2,28.02,East,90,2.0,3.0,95,0.02,,,0.13,meteohub,2013-06-14 07:25:00,
2013-06-14 03:30:00,47.7,46.2,28.02,East,90,2.0,3.0,95,0.02,,,0.13,meteohub,2013-06-14 07:30:00,
2013-06-14 03:35:00,47.7,46.6,28.03,West,270,2.0,3.0,96,0.02,,,0.13,meteohub,2013-06-14 07:35:00,
2013-06-14 03:41:00,47.7,46.6,28.03,North,0,2.0,3.0,96,0.02,,,0.13,meteohub,2013-06-14 07:41:00,
2013-06-14 03:46:00,47.7,46.9,28.03,North,0,2.0,3.0,97,0.02,,,0.13,meteohub,2013-06-14 07:46:00,
2013-06-14 03:51:00,47.7,46.9,28.02,West,270,2.0,2.0,97,0.02,,,0.13,meteohub,2013-06-14 07:51:00,
2013-06-14 03:56:00,47.7,46.9,28.02,NW,315,2.0,2.0,97,0.01,,,0.13,meteohub,2013-06-14 07:56:00,
2013-06-14 04:01:00,47.7,47.1,28.03,NW,315,3.0,3.0,98,0.01,,,0.13,meteohub,2013-06-14 08:01:00,
2013-06-14 04:06:00,47.7,47.1,28.03,West,270,2.0,3.0,98,0.01,,,0.13,meteohub,2013-06-14 08:06:00,
2013-06-14 04:11:00,47.7,47.1,28.03,NW,315,2.0,3.0,98,0.01,,,0.13,meteohub,2013-06-14 08:11:00,
2013-06-14 04:16:00,47.7,47.1,28.04,West,270,2.0,3.0,98,0.01,,,0.13,meteohub,2013-06-14 08:16:00,
2013-06-14 04:21:00,47.7,47.1,28.04,South,180,3.0,3.0,98,0.00,,,0.13,meteohub,2013-06-14 08:21:00,
2013-06-14 04:26:00,47.7,47.1,28.03,East,90,2.0,3.0,98,0.01,,,0.14,meteohub,2013-06-14 08:26:00,
2013-06-14 04:31:00,47.7,47.5,28.04,SW,225,2.0,4.0,99,0.01,,,0.14,meteohub,2013-06-14 08:31:00,
2013-06-14 04:36:00,47.7,47.5,28.04,East,90,2.0,4.0,99,0.01,,,0.14,meteohub,2013-06-14 08:36:00,
2013-06-14 04:41:00,47.7,47.5,28.03,NW,315,0.0,4.0,99,0.01,,,0.14,meteohub,2013-06-14 08:41:00,
2013-06-14 04:46:00,47.7,47.5,28.04,East,90,0.0,2.0,99,0.01,,,0.14,meteohub,2013-06-14 08:46:00,
2013-06-14 04:51:00,47.7,47.5,28.04,NW,315,1.0,2.0,99,0.01,,,0.14,meteohub,2013-06-14 08:51:00,
2013-06-14 04:57:00,47.7,47.5,28.04,North,0,2.0,4.0,99,0.01,,,0.14,meteohub,2013-06-14 08:57:00,
2013-06-14 05:02:00,47.8,47.7,28.04,North,0,4.0,4.0,99,0.01,,,0.14,meteohub,2013-06-14 09:02:00,
2013-06-14 05:07:00,47.8,47.7,28.04,North,0,3.0,4.0,99,0.01,,,0.14,meteohub,2013-06-14 09:07:00,
2013-06-14 05:12:00,47.8,47.7,28.04,North,0,3.0,5.0,99,0.01,,,0.14,meteohub,2013-06-14 09:12:00,
2013-06-14 05:17:00,47.8,47.7,28.05,North,0,2.0,5.0,99,0.01,,,0.14,meteohub,2013-06-14 09:17:00,
2013-06-14 05:22:00,47.8,47.7,28.05,NW,315,2.0,5.0,99,0.01,,,0.14,meteohub,2013-06-14 09:22:00,
2013-06-14 05:27:00,47.8,47.7,28.06,North,0,2.0,5.0,99,0.00,,,0.14,meteohub,2013-06-14 09:27:00,
2013-06-14 05:32:00,47.8,47.7,28.05,NW,315,2.0,4.0,99,0.00,,,0.14,meteohub,2013-06-14 09:32:00,
2013-06-14 05:37:00,47.8,47.7,28.05,NE,45,5.0,5.0,99,0.00,,,0.14,meteohub,2013-06-14 09:37:00,
2013-06-14 05:42:00,47.8,47.7,28.05,North,0,4.0,5.0,99,0.00,,,0.14,meteohub,2013-06-14 09:42:00,
2013-06-14 05:47:00,47.8,47.7,28.06,North,0,3.0,6.0,99,0.00,,,0.14,meteohub,2013-06-14 09:47:00,
2013-06-14 05:52:00,47.8,47.7,28.06,NE,45,2.0,6.0,99,0.00,,,0.14,meteohub,2013-06-14 09:52:00,
2013-06-14 05:57:00,47.8,47.7,28.06,NE,45,3.0,6.0,99,0.00,,,0.14,meteohub,2013-06-14 09:57:00,
2013-06-14 06:02:00,47.8,47.7,28.05,NE,45,4.0,5.0,99,0.00,,,0.14,meteohub,2013-06-14 10:02:00,
2013-06-14 06:07:00,48.0,47.8,28.05,West,270,3.0,5.0,99,0.00,,,0.14,meteohub,2013-06-14 10:07:00,
2013-06-14 06:12:00,48.0,47.8,28.06,North,0,1.0,5.0,99,0.00,,,0.14,meteohub,2013-06-14 10:12:00,
2013-06-14 06:17:00,48.2,48.0,28.06,NW,315,2.0,4.0,99,0.00,,,0.14,meteohub,2013-06-14 10:17:00,
2013-06-14 06:22:00,48.2,48.0,28.06,North,0,2.0,5.0,99,0.00,,,0.14,meteohub,2013-06-14 10:22:00,
2013-06-14 06:27:00,48.2,48.0,28.06,North,0,2.0,5.0,99,0.00,,,0.14,meteohub,2013-06-14 10:27:00,
2013-06-14 06:32:00,48.4,48.2,28.05,NE,45,3.0,5.0,99,0.00,,,0.14,meteohub,2013-06-14 10:32:00,
2013-06-14 06:37:00,48.4,48.2,28.05,North,0,2.0,5.0,99,0.00,,,0.14,meteohub,2013-06-14 10:37:00,
2013-06-14 06:42:00,48.6,48.4,28.05,North,0,4.0,4.0,99,0.00,,,0.14,meteohub,2013-06-14 10:42:00,
2013-06-14 06:47:00,48.6,48.4,28.06,North,0,4.0,4.0,99,0.00,,,0.14,meteohub,2013-06-14 10:47:00,
2013-06-14 06:52:00,48.7,48.6,28.06,North,0,4.0,6.0,99,0.00,,,0.14,meteohub,2013-06-14 10:52:00,
2013-06-14 06:57:00,48.9,48.7,28.06,NE,45,4.0,7.0,99,0.00,,,0.14,meteohub,2013-06-14 10:57:00,
2013-06-14 07:02:00,49.1,48.9,28.06,North,0,4.0,7.0,99,0.00,,,0.14,meteohub,2013-06-14 11:02:00,
2013-06-14 07:07:00,49.1,48.9,28.06,North,0,2.0,7.0,99,0.00,,,0.14,meteohub,2013-06-14 11:07:00,
2013-06-14 07:12:00,49.1,48.9,28.06,NE,45,3.0,4.0,99,0.00,,,0.14,meteohub,2013-06-14 11:12:00,
2013-06-14 07:17:00,49.3,49.1,28.06,NE,45,2.0,4.0,99,0.00,,,0.14,meteohub,2013-06-14 11:17:00,
2013-06-14 07:22:00,49.3,49.1,28.06,NW,315,2.0,4.0,99,0.00,,,0.14,meteohub,2013-06-14 11:22:00,
2013-06-14 07:27:00,49.5,49.3,28.06,North,0,4.0,4.0,99,0.00,,,0.14,meteohub,2013-06-14 11:27:00,
2013-06-14 07:32:00,49.5,49.3,28.06,East,90,3.0,5.0,99,0.00,,,0.14,meteohub,2013-06-14 11:32:00,
2013-06-14 07:37:00,49.5,49.3,28.06,East,90,3.0,5.0,99,0.00,,,0.14,meteohub,2013-06-14 11:37:00,
2013-06-14 07:42:00,50.0,49.6,28.06,NE,45,3.0,5.0,99,0.00,,,0.14,meteohub,2013-06-14 11:42:00,
2013-06-14 07:47:00,50.4,50.0,28.06,North,0,3.0,5.0,99,0.00,,,0.14,meteohub,2013-06-14 11:47:00,
2013-06-14 07:52:00,51.1,50.7,28.06,NE,45,6.0,6.0,99,0.00,,,0.14,meteohub,2013-06-14 11:52:00,
2013-06-14 07:57:00,51.8,51.3,28.06,NE,45,4.0,6.0,98,0.00,,,0.14,meteohub,2013-06-14 11:57:00,
2013-06-14 08:02:00,52.2,51.6,28.07,NE,45,5.0,6.0,98,0.01,,,0.15,meteohub,2013-06-14 12:02:00,
2013-06-14 08:07:00,52.2,51.6,28.07,North,0,2.0,6.0,98,0.01,,,0.15,meteohub,2013-06-14 12:07:00,
2013-06-14 08:12:00,52.3,51.8,28.07,North,0,7.0,7.0,98,0.01,,,0.15,meteohub,2013-06-14 12:12:00,
2013-06-14 08:17:00,52.5,52.0,28.07,NNE,23,2.0,7.0,98,0.01,,,0.15,meteohub,2013-06-14 12:17:00,
2013-06-14 08:22:00,52.7,52.2,28.06,North,0,4.0,7.0,98,0.01,,,0.15,meteohub,2013-06-14 12:22:00,
2013-06-14 08:27:00,53.1,52.5,28.07,NW,315,4.0,7.0,98,0.01,,,0.15,meteohub,2013-06-14 12:27:00,
2013-06-14 08:32:00,53.8,52.9,28.06,NE,45,6.0,8.0,97,0.01,,,0.15,meteohub,2013-06-14 12:32:00,
2013-06-14 08:37:00,54.5,53.4,28.06,North,0,7.0,8.0,96,0.01,,,0.15,meteohub,2013-06-14 12:37:00,
2013-06-14 08:42:00,54.3,52.0,28.07,North,0,6.0,9.0,92,0.01,,,0.15,meteohub,2013-06-14 12:42:00,
2013-06-14 08:47:00,54.1,50.9,28.07,North,0,4.0,9.0,89,0.01,,,0.15,meteohub,2013-06-14 12:47:00,
2013-06-14 08:52:00,54.5,51.3,28.07,North,0,8.0,12.0,89,0.01,,,0.15,meteohub,2013-06-14 12:52:00,
2013-06-14 08:57:00,54.7,51.4,28.07,North,0,7.0,12.0,89,0.01,,,0.15,meteohub,2013-06-14 12:57:00,
2013-06-14 09:02:00,55.6,51.8,28.08,North,0,8.0,12.0,87,0.00,,,0.15,meteohub,2013-06-14 13:02:00,
2013-06-14 09:07:00,55.4,50.9,28.08,North,0,4.0,10.0,85,0.00,,,0.15,meteohub,2013-06-14 13:07:00,
2013-06-14 09:12:00,55.8,51.3,28.08,North,0,5.0,10.0,85,0.00,,,0.15,meteohub,2013-06-14 13:12:00,
2013-06-14 09:17:00,56.3,51.4,28.07,North,0,5.0,10.0,84,0.00,,,0.15,meteohub,2013-06-14 13:17:00,
2013-06-14 09:22:00,56.7,51.6,28.07,NW,315,5.0,10.0,83,0.00,,,0.15,meteohub,2013-06-14 13:22:00,
2013-06-14 09:27:00,57.2,51.8,28.07,NE,45,4.0,10.0,82,0.00,,,0.15,meteohub,2013-06-14 13:27:00,
2013-06-14 09:32:00,58.3,52.9,28.07,NE,45,4.0,9.0,82,0.00,,,0.15,meteohub,2013-06-14 13:32:00,
2013-06-14 09:37:00,58.8,52.7,28.07,North,0,3.0,9.0,80,0.00,,,0.15,meteohub,2013-06-14 13:37:00,
2013-06-14 09:42:00,59.5,53.1,28.07,North,0,4.0,11.0,79,0.00,,,0.15,meteohub,2013-06-14 13:42:00,
2013-06-14 09:47:00,59.9,52.7,28.07,North,0,8.0,11.0,77,0.00,,,0.15,meteohub,2013-06-14 13:47:00,
2013-06-14 09:52:00,60.4,53.2,28.07,North,0,4.0,11.0,77,0.00,,,0.15,meteohub,2013-06-14 13:52:00,
2013-06-14 09:57:00,60.6,53.1,28.08,North,0,8.0,10.0,76,0.00,,,0.15,meteohub,2013-06-14 13:57:00,
2013-06-14 10:02:00,60.6,52.3,28.07,North,0,8.0,12.0,74,0.00,,,0.15,meteohub,2013-06-14 14:02:00,
2013-06-14 10:07:00,61.0,53.1,28.08,NNW,338,7.0,12.0,75,0.00,,,0.15,meteohub,2013-06-14 14:07:00,
2013-06-14 10:12:00,60.8,52.5,28.09,NW,315,6.0,12.0,74,0.00,,,0.15,meteohub,2013-06-14 14:12:00,
2013-06-14 10:17:00,60.8,52.9,28.08,West,270,6.0,8.0,75,0.00,,,0.15,meteohub,2013-06-14 14:17:00,
2013-06-14 10:22:00,61.0,53.8,28.09,NE,45,4.0,8.0,77,0.00,,,0.15,meteohub,2013-06-14 14:22:00,
2013-06-14 10:27:00,62.1,54.7,28.09,East,90,2.0,8.0,77,0.00,,,0.15,meteohub,2013-06-14 14:27:00,
2013-06-14 10:32:00,62.2,53.8,28.09,North,0,4.0,8.0,74,0.00,,,0.15,meteohub,2013-06-14 14:32:00,
2013-06-14 10:37:00,62.1,54.3,28.09,NW,315,5.0,7.0,76,0.00,,,0.15,meteohub,2013-06-14 14:37:00,
2013-06-14 10:42:00,62.1,55.0,28.09,SW,225,4.0,7.0,78,0.00,,,0.15,meteohub,2013-06-14 14:42:00,
2013-06-14 10:47:00,62.2,55.2,28.09,North,0,2.0,5.0,78,0.00,,,0.15,meteohub,2013-06-14 14:47:00,
2013-06-14 10:52:00,62.4,54.3,28.09,North,0,4.0,5.0,75,0.00,,,0.15,meteohub,2013-06-14 14:52:00,
2013-06-14 10:57:00,63.1,55.8,28.09,West,270,4.0,4.0,77,0.00,,,0.15,meteohub,2013-06-14 14:57:00,
2013-06-14 11:02:00,64.0,55.9,28.09,WNW,293,9.0,9.0,75,0.00,,,0.15,meteohub,2013-06-14 15:02:00,
2013-06-14 11:07:00,63.7,54.1,28.09,NE,45,4.0,9.0,71,0.00,,,0.15,meteohub,2013-06-14 15:07:00,
2013-06-14 11:12:00,63.9,54.3,28.09,West,270,4.0,9.0,71,0.00,,,0.15,meteohub,2013-06-14 15:12:00,
2013-06-14 11:17:00,63.5,54.3,28.09,North,0,4.0,9.0,72,0.00,,,0.15,meteohub,2013-06-14 15:17:00,
2013-06-14 11:22:00,64.8,55.9,28.09,SE,135,4.0,7.0,73,0.00,,,0.15,meteohub,2013-06-14 15:22:00,
2013-06-14 11:27:00,65.8,55.4,28.09,West,270,6.0,7.0,69,0.00,,,0.15,meteohub,2013-06-14 15:27:00,
2013-06-14 11:32:00,66.2,52.9,28.09,NE,45,7.0,15.0,62,0.00,,,0.15,meteohub,2013-06-14 15:32:00,
2013-06-14 11:37:00,65.7,52.7,28.09,North,0,10.0,15.0,63,0.00,,,0.15,meteohub,2013-06-14 15:37:00,
2013-06-14 11:42:00,66.2,52.3,28.10,North,0,8.0,15.0,61,0.00,,,0.15,meteohub,2013-06-14 15:42:00,
2013-06-14 11:47:00,66.6,51.8,28.09,ENE,68,2.0,15.0,59,0.00,,,0.15,meteohub,2013-06-14 15:47:00,
2013-06-14 11:52:00,66.4,52.2,28.10,NE,45,11.0,13.0,60,0.00,,,0.15,meteohub,2013-06-14 15:52:00,
2013-06-14 11:57:00,66.2,52.3,28.10,WSW,248,9.0,13.0,61,0.00,,,0.15,meteohub,2013-06-14 15:57:00,
2013-06-14 12:02:00,65.7,50.9,28.10,NE,45,7.0,11.0,59,0.00,,,0.15,meteohub,2013-06-14 16:02:00,
2013-06-14 12:07:00,65.3,52.0,28.10,ENE,68,6.0,11.0,62,0.00,,,0.15,meteohub,2013-06-14 16:07:00,
2013-06-14 12:12:00,64.9,51.6,28.10,East,90,4.0,12.0,62,0.00,,,0.15,meteohub,2013-06-14 16:12:00,
2013-06-14 12:17:00,64.8,51.4,28.10,NW,315,4.0,12.0,62,0.00,,,0.15,meteohub,2013-06-14 16:17:00,
2013-06-14 12:22:00,66.0,53.1,28.10,NE,45,4.0,12.0,63,0.00,,,0.15,meteohub,2013-06-14 16:22:00,
2013-06-14 12:28:00,66.4,51.1,28.10,SE,135,10.0,12.0,58,0.00,,,0.15,meteohub,2013-06-14 16:28:00,
2013-06-14 12:33:00,66.0,51.3,28.11,NE,45,4.0,10.0,59,0.00,,,0.15,meteohub,2013-06-14 16:33:00,
2013-06-14 12:38:00,66.6,49.8,28.11,ESE,113,8.0,11.0,55,0.00,,,0.15,meteohub,2013-06-14 16:38:00,
2013-06-14 12:43:00,66.4,50.2,28.10,NE,45,7.0,14.0,56,0.00,,,0.15,meteohub,2013-06-14 16:43:00,
2013-06-14 12:48:00,66.4,52.2,28.11,SSE,158,2.0,14.0,60,0.00,,,0.15,meteohub,2013-06-14 16:48:00,
2013-06-14 12:53:00,67.3,51.1,28.11,ENE,68,4.0,14.0,56,0.00,,,0.15,meteohub,2013-06-14 16:53:00,
2013-06-14 12:58:00,67.6,50.4,28.11,East,90,2.0,9.0,54,0.00,,,0.15,meteohub,2013-06-14 16:58:00,
2013-06-14 13:03:00,67.5,50.7,28.11,North,0,4.0,8.0,55,0.00,,,0.15,meteohub,2013-06-14 17:03:00,
2013-06-14 13:08:00,67.3,51.1,28.11,North,0,8.0,8.0,56,0.00,,,0.15,meteohub,2013-06-14 17:08:00,
2013-06-14 13:13:00,68.0,50.7,28.11,NW,315,6.0,10.0,54,0.00,,,0.15,meteohub,2013-06-14 17:13:00,
2013-06-14 13:18:00,67.8,50.0,28.10,NE,45,3.0,10.0,53,0.00,,,0.15,meteohub,2013-06-14 17:18:00,
2013-06-14 13:23:00,67.5,51.3,28.10,NNE,23,10.0,10.0,56,0.00,,,0.15,meteohub,2013-06-14 17:23:00,
2013-06-14 13:28:00,66.6,49.8,28.11,NE,45,11.0,11.0,55,0.00,,,0.15,meteohub,2013-06-14 17:28:00,
2013-06-14 13:33:00,66.7,51.4,28.11,North,0,7.0,11.0,58,0.00,,,0.15,meteohub,2013-06-14 17:33:00,
2013-06-14 13:39:00,66.6,50.4,28.10,East,90,4.0,11.0,56,0.00,,,0.15,meteohub,2013-06-14 17:39:00,
2013-06-14 13:44:00,67.8,52.0,28.11,North,0,4.0,11.0,57,0.00,,,0.15,meteohub,2013-06-14 17:44:00,
2013-06-14 13:49:00,68.0,50.7,28.11,North,0,5.0,10.0,54,0.00,,,0.15,meteohub,2013-06-14 17:49:00,
2013-06-14 13:54:00,67.5,51.3,28.11,North,0,4.0,9.0,56,0.00,,,0.15,meteohub,2013-06-14 17:54:00,
2013-06-14 13:59:00,66.2,53.2,28.11,West,270,4.0,11.0,63,0.00,,,0.15,meteohub,2013-06-14 17:59:00,
2013-06-14 14:04:00,66.2,53.2,28.11,West,270,4.0,11.0,63,0.00,,,0.15,meteohub,2013-06-14 18:04:00,
2013-06-14 14:09:00,63.3,53.8,28.12,East,90,3.0,11.0,71,0.00,,,0.15,meteohub,2013-06-14 18:09:00,
2013-06-14 14:14:00,62.1,53.6,28.12,East,90,2.0,6.0,74,0.02,,,0.18,meteohub,2013-06-14 18:14:00,
2013-06-14 14:19:00,61.2,52.9,28.12,East,90,2.0,5.0,74,0.05,,,0.20,meteohub,2013-06-14 18:19:00,
2013-06-14 14:24:00,60.6,53.4,28.12,NE,45,11.0,11.0,77,0.06,,,0.21,meteohub,2013-06-14 18:24:00,
2013-06-14 14:30:00,60.4,54.3,28.13,ESE,113,8.0,11.0,80,0.06,,,0.21,meteohub,2013-06-14 18:30:00,
2013-06-14 14:35:00,60.3,54.3,28.13,West,270,2.0,11.0,81,0.06,,,0.21,meteohub,2013-06-14 18:35:00,
2013-06-14 14:40:00,59.9,54.3,28.12,SW,225,2.0,11.0,82,0.07,,,0.24,meteohub,2013-06-14 18:40:00,
2013-06-14 14:45:00,59.0,54.1,28.13,West,270,1.0,8.0,84,0.08,,,0.25,meteohub,2013-06-14 18:45:00,
2013-06-14 14:50:00,58.6,54.5,28.14,North,0,3.0,8.0,86,0.09,,,0.26,meteohub,2013-06-14 18:50:00,
2013-06-14 14:55:00,58.3,54.7,28.13,SW,225,3.0,4.0,88,0.12,,,0.27,meteohub,2013-06-14 18:55:00,
2013-06-14 15:00:00,57.4,54.1,28.13,West,270,2.0,4.0,89,0.12,,,0.27,meteohub,2013-06-14 19:00:00,
2013-06-14 15:05:00,57.0,54.1,28.14,North,0,3.0,4.0,90,0.12,,,0.27,meteohub,2013-06-14 19:05:00,
2013-06-14 15:10:00,56.8,54.3,28.14,NE,45,5.0,7.0,91,0.11,,,0.28,meteohub,2013-06-14 19:10:00,
2013-06-14 15:15:00,56.7,54.3,28.14,North,0,5.0,8.0,92,0.08,,,0.28,meteohub,2013-06-14 19:15:00,
2013-06-14 15:20:00,56.5,54.5,28.14,NW,315,3.0,8.0,93,0.07,,,0.28,meteohub,2013-06-14 19:20:00,
2013-06-14 15:25:00,56.3,54.3,28.14,NNE,23,2.0,8.0,93,0.08,,,0.30,meteohub,2013-06-14 19:25:00,
2013-06-14 15:30:00,56.1,54.1,28.15,NE,45,4.0,5.0,93,0.11,,,0.32,meteohub,2013-06-14 19:30:00,
2013-06-14 15:35:00,55.8,53.8,28.14,NE,45,2.0,5.0,93,0.11,,,0.33,meteohub,2013-06-14 19:35:00,
2013-06-14 15:41:00,55.6,53.6,28.14,NNW,338,6.0,6.0,93,0.11,,,0.34,meteohub,2013-06-14 19:41:00,
2013-06-14 15:46:00,55.4,53.8,28.14,North,0,5.0,7.0,94,0.09,,,0.34,meteohub,2013-06-14 19:46:00,
2013-06-14 15:51:00,55.2,53.6,28.14,ENE,68,6.0,7.0,94,0.08,,,0.34,meteohub,2013-06-14 19:51:00,
2013-06-14 15:56:00,55.2,53.8,28.14,North,0,3.0,7.0,95,0.07,,,0.34,meteohub,2013-06-14 19:56:00,
2013-06-14 16:01:00,55.2,53.8,28.14,NW,315,2.0,6.0,95,0.08,,,0.35,meteohub,2013-06-14 20:01:00,
2013-06-14 16:06:00,55.2,53.8,28.14,NW,315,2.0,6.0,95,0.08,,,0.35,meteohub,2013-06-14 20:06:00,
2013-06-14 16:11:00,55.6,54.1,28.15,NW,315,3.0,7.0,95,0.07,,,0.35,meteohub,2013-06-14 20:11:00,
2013-06-14 16:16:00,55.4,54.0,28.15,North,0,8.0,8.0,95,0.07,,,0.35,meteohub,2013-06-14 20:16:00,
2013-06-14 16:21:00,55.2,54.1,28.15,NW,315,11.0,11.0,96,0.07,,,0.35,meteohub,2013-06-14 20:21:00,
2013-06-14 16:26:00,55.0,54.1,28.15,NE,45,2.0,11.0,97,0.06,,,0.35,meteohub,2013-06-14 20:26:00,
2013-06-14 16:31:00,55.4,54.3,28.14,NE,45,4.0,11.0,96,0.04,,,0.35,meteohub,2013-06-14 20:31:00,
2013-06-14 16:36:00,55.6,54.5,28.14,NE,45,4.0,11.0,96,0.02,,,0.35,meteohub,2013-06-14 20:36:00,
2013-06-14 16:41:00,55.9,54.9,28.14,North,0,4.0,5.0,96,0.01,,,0.35,meteohub,2013-06-14 20:41:00,
2013-06-14 16:46:00,56.1,55.0,28.14,NE,45,4.0,7.0,96,0.01,,,0.35,meteohub,2013-06-14 20:46:00,
2013-06-14 16:52:00,56.5,55.6,28.14,NE,45,3.0,7.0,97,0.01,,,0.35,meteohub,2013-06-14 20:52:00,
2013-06-14 16:57:00,56.5,55.4,28.14,NE,45,3.0,7.0,96,0.01,,,0.35,meteohub,2013-06-14 20:57:00,
2013-06-14 17:02:00,56.7,55.6,28.15,North,0,7.0,7.0,96,0.00,,,0.35,meteohub,2013-06-14 21:02:00,
2013-06-14 17:07:00,56.5,55.4,28.14,NW,315,2.0,9.0,96,0.00,,,0.35,meteohub,2013-06-14 21:07:00,
2013-06-14 17:12:00,56.5,55.4,28.14,NNW,338,8.0,9.0,96,0.00,,,0.35,meteohub,2013-06-14 21:12:00,
2013-06-14 17:17:00,56.5,55.0,28.15,NE,45,7.0,9.0,95,0.00,,,0.35,meteohub,2013-06-14 21:17:00,
2013-06-14 17:22:00,56.7,55.2,28.15,North,0,2.0,8.0,95,0.00,,,0.35,meteohub,2013-06-14 21:22:00,
2013-06-14 17:27:00,56.8,55.4,28.15,NW,315,4.0,8.0,95,0.00,,,0.35,meteohub,2013-06-14 21:27:00,
2013-06-14 17:32:00,57.0,55.6,28.15,North,0,3.0,7.0,95,0.00,,,0.35,meteohub,2013-06-14 21:32:00,
2013-06-14 17:37:00,57.0,55.6,28.15,NW,315,3.0,4.0,95,0.00,,,0.35,meteohub,2013-06-14 21:37:00,
2013-06-14 17:42:00,56.8,55.4,28.14,North,0,3.0,4.0,95,0.00,,,0.35,meteohub,2013-06-14 21:42:00,
2013-06-14 17:47:00,56.7,55.2,28.15,NW,315,2.0,5.0,95,0.00,,,0.35,meteohub,2013-06-14 21:47:00,
2013-06-14 17:52:00,56.7,55.2,28.15,North,0,2.0,5.0,95,0.00,,,0.35,meteohub,2013-06-14 21:52:00,
2013-06-14 17:57:00,56.7,55.2,28.15,NW,315,2.0,5.0,95,0.00,,,0.35,meteohub,2013-06-14 21:57:00,
2013-06-14 18:02:00,56.7,55.2,28.15,North,0,6.0,6.0,95,0.00,,,0.35,meteohub,2013-06-14 22:02:00,
2013-06-14 18:07:00,56.7,55.2,28.15,North,0,6.0,6.0,95,0.00,,,0.35,meteohub,2013-06-14 22:07:00,
2013-06-14 18:12:00,56.5,55.4,28.15,North,0,4.0,6.0,96,0.00,,,0.35,meteohub,2013-06-14 22:12:00,
2013-06-14 18:17:00,56.3,55.2,28.16,North,0,4.0,6.0,96,0.00,,,0.35,meteohub,2013-06-14 22:17:00,
2013-06-14 18:22:00,56.1,55.0,28.16,NW,315,2.0,6.0,96,0.00,,,0.35,meteohub,2013-06-14 22:22:00,
2013-06-14 18:27:00,56.1,55.0,28.16,North,0,2.0,5.0,96,0.00,,,0.35,meteohub,2013-06-14 22:27:00,
2013-06-14 18:32:00,56.1,55.0,28.16,NE,45,2.0,5.0,96,0.00,,,0.35,meteohub,2013-06-14 22:32:00,
2013-06-14 18:37:00,56.1,55.0,28.17,North,0,3.0,5.0,96,0.00,,,0.35,meteohub,2013-06-14 22:37:00,
2013-06-14 18:42:00,56.1,55.0,28.16,North,0,4.0,5.0,96,0.00,,,0.35,meteohub,2013-06-14 22:42:00,
2013-06-14 18:47:00,56.3,55.2,28.17,NW,315,4.0,6.0,96,0.00,,,0.35,meteohub,2013-06-14 22:47:00,
2013-06-14 18:52:00,56.7,55.8,28.16,NNE,23,4.0,6.0,97,0.00,,,0.35,meteohub,2013-06-14 22:52:00,
2013-06-14 18:57:00,57.0,56.1,28.16,North,0,3.0,6.0,97,0.00,,,0.35,meteohub,2013-06-14 22:57:00,
2013-06-14 19:02:00,57.6,56.5,28.17,North,0,2.0,6.0,96,0.00,,,0.35,meteohub,2013-06-14 23:02:00,
2013-06-14 19:07:00,57.7,56.7,28.17,WNW,293,4.0,6.0,96,0.00,,,0.35,meteohub,2013-06-14 23:07:00,
2013-06-14 19:12:00,57.9,56.8,28.17,NNW,338,4.0,6.0,96,0.00,,,0.35,meteohub,2013-06-14 23:12:00,
2013-06-14 19:17:00,57.9,56.8,28.17,NW,315,2.0,6.0,96,0.00,,,0.35,meteohub,2013-06-14 23:17:00,
2013-06-14 19:22:00,57.7,56.3,28.17,North,0,4.0,6.0,95,0.00,,,0.35,meteohub,2013-06-14 23:22:00,
2013-06-14 19:27:00,57.6,56.1,28.17,North,0,4.0,6.0,95,0.00,,,0.35,meteohub,2013-06-14 23:27:00,
2013-06-14 19:32:00,57.4,55.6,28.17,NW,315,2.0,6.0,94,0.00,,,0.35,meteohub,2013-06-14 23:32:00,
2013-06-14 19:37:00,57.0,55.6,28.17,NNW,338,3.0,6.0,95,0.00,,,0.35,meteohub,2013-06-14 23:37:00,
2013-06-14 19:42:00,56.8,55.4,28.17,NNW,338,4.0,6.0,95,0.00,,,0.35,meteohub,2013-06-14 23:42:00,
2013-06-14 19:47:00,56.7,55.2,28.17,North,0,3.0,4.0,95,0.00,,,0.35,meteohub,2013-06-14 23:47:00,
2013-06-14 19:52:00,56.5,55.0,28.18,NW,315,2.0,4.0,95,0.00,,,0.35,meteohub,2013-06-14 23:52:00,
2013-06-14 19:57:00,56.3,54.9,28.17,North,0,4.0,6.0,95,0.00,,,0.35,meteohub,2013-06-14 23:57:00,
2013-06-14 20:02:00,56.3,54.9,28.17,North,0,3.0,6.0,95,0.00,,,0.35,meteohub,2013-06-15 00:02:00,
2013-06-14 20:07:00,56.1,54.7,28.17,North,0,4.0,6.0,95,0.00,,,0.35,meteohub,2013-06-15 00:07:00,
2013-06-14 20:12:00,55.9,54.5,28.17,North,0,6.0,6.0,95,0.00,,,0.35,meteohub,2013-06-15 00:12:00,
2013-06-14 20:17:00,55.9,54.5,28.17,NNW,338,5.0,6.0,95,0.00,,,0.35,meteohub,2013-06-15 00:17:00,
2013-06-14 20:22:00,55.9,54.5,28.17,West,270,2.0,6.0,95,0.00,,,0.35,meteohub,2013-06-15 00:22:00,
2013-06-14 20:27:00,55.8,54.3,28.17,North,0,4.0,6.0,95,0.00,,,0.35,meteohub,2013-06-15 00:27:00,
2013-06-14 20:32:00,55.8,54.3,28.17,North,0,3.0,6.0,95,0.00,,,0.35,meteohub,2013-06-15 00:32:00,
2013-06-14 20:37:00,55.8,54.3,28.18,NNW,338,3.0,5.0,95,0.00,,,0.35,meteohub,2013-06-15 00:37:00,
2013-06-14 20:42:00,55.8,54.3,28.18,WNW,293,5.0,5.0,95,0.00,,,0.35,meteohub,2013-06-15 00:42:00,
2013-06-14 20:47:00,55.9,54.5,28.18,North,0,3.0,5.0,95,0.00,,,0.35,meteohub,2013-06-15 00:47:00,
2013-06-14 20:52:00,56.1,54.7,28.18,NW,315,4.0,5.0,95,0.00,,,0.35,meteohub,2013-06-15 00:52:00,
2013-06-14 20:57:00,56.1,54.7,28.18,North,0,3.0,5.0,95,0.00,,,0.35,meteohub,2013-06-15 00:57:00,
2013-06-14 21:02:00,56.3,54.9,28.19,North,0,5.0,6.0,95,0.00,,,0.35,meteohub,2013-06-15 01:02:00,
2013-06-14 21:07:00,56.5,55.0,28.19,NE,45,4.0,6.0,95,0.00,,,0.35,meteohub,2013-06-15 01:07:00,
2013-06-14 21:12:00,56.7,55.2,28.19,North,0,4.0,6.0,95,0.00,,,0.35,meteohub,2013-06-15 01:12:00,
2013-06-14 21:17:00,56.8,55.4,28.20,WNW,293,5.0,5.0,95,0.00,,,0.35,meteohub,2013-06-15 01:17:00,
2013-06-14 21:22:00,56.8,55.4,28.20,North,0,4.0,5.0,95,0.00,,,0.35,meteohub,2013-06-15 01:22:00,
2013-06-14 21:27:00,57.0,55.6,28.20,North,0,4.0,6.0,95,0.00,,,0.35,meteohub,2013-06-15 01:27:00,
2013-06-14 21:32:00,57.0,55.6,28.20,North,0,6.0,6.0,95,0.00,,,0.35,meteohub,2013-06-15 01:32:00,
2013-06-14 21:37:00,57.2,55.4,28.21,NNW,338,3.0,8.0,94,0.00,,,0.35,meteohub,2013-06-15 01:37:00,
2013-06-14 21:42:00,57.2,55.4,28.21,NNW,338,3.0,8.0,94,0.00,,,0.35,meteohub,2013-06-15 01:42:00,
2013-06-14 21:47:00,57.4,55.6,28.21,North,0,5.0,8.0,94,0.00,,,0.35,meteohub,2013-06-15 01:47:00,
2013-06-14 21:52:00,57.4,55.6,28.21,North,0,5.0,5.0,94,0.00,,,0.35,meteohub,2013-06-15 01:52:00,
2013-06-14 21:57:00,57.6,55.8,28.21,North,0,5.0,5.0,94,0.00,,,0.35,meteohub,2013-06-15 01:57:00,
2013-06-14 22:02:00,57.7,55.8,28.21,North,0,4.0,8.0,93,0.00,,,0.35,meteohub,2013-06-15 02:02:00,
2013-06-14 22:07:00,57.7,55.8,28.22,NNW,338,4.0,8.0,93,0.00,,,0.35,meteohub,2013-06-15 02:07:00,
2013-06-14 22:12:00,57.9,55.9,28.21,North,0,6.0,8.0,93,0.00,,,0.35,meteohub,2013-06-15 02:12:00,
2013-06-14 22:17:00,57.9,55.9,28.22,North,0,6.0,8.0,93,0.00,,,0.35,meteohub,2013-06-15 02:17:00,
2013-06-14 22:22:00,58.1,55.8,28.22,NNE,23,3.0,8.0,92,0.00,,,0.35,meteohub,2013-06-15 02:22:00,
2013-06-14 22:27:00,57.9,55.6,28.22,North,0,5.0,8.0,92,0.00,,,0.35,meteohub,2013-06-15 02:27:00,
2013-06-14 22:32:00,57.9,55.6,28.22,North,0,4.0,8.0,92,0.00,,,0.35,meteohub,2013-06-15 02:32:00,
2013-06-14 22:37:00,57.9,55.6,28.22,NE,45,3.0,7.0,92,0.00,,,0.35,meteohub,2013-06-15 02:37:00,
2013-06-14 22:42:00,57.9,55.6,28.22,North,0,7.0,7.0,92,0.00,,,0.35,meteohub,2013-06-15 02:42:00,
2013-06-14 22:47:00,58.1,55.8,28.22,North,0,9.0,9.0,92,0.00,,,0.35,meteohub,2013-06-15 02:47:00,
2013-06-14 22:52:00,58.3,55.6,28.22,North,0,12.0,12.0,91,0.00,,,0.35,meteohub,2013-06-15 02:52:00,
2013-06-14 22:57:00,58.5,55.8,28.22,West,270,5.0,12.0,91,0.00,,,0.35,meteohub,2013-06-15 02:57:00,
2013-06-14 23:02:00,58.3,55.4,28.22,North,0,4.0,12.0,90,0.00,,,0.35,meteohub,2013-06-15 03:02:00,
2013-06-14 23:07:00,58.1,55.2,28.22,North,0,6.0,12.0,90,0.00,,,0.35,meteohub,2013-06-15 03:07:00,
2013-06-14 23:12:00,57.7,54.9,28.23,North,0,7.0,9.0,90,0.00,,,0.35,meteohub,2013-06-15 03:12:00,
2013-06-14 23:17:00,57.7,55.2,28.22,North,0,8.0,9.0,91,0.00,,,0.35,meteohub,2013-06-15 03:17:00,
2013-06-14 23:22:00,57.6,55.0,28.22,North,0,5.0,8.0,91,0.00,,,0.35,meteohub,2013-06-15 03:22:00,
2013-06-14 23:27:00,57.4,54.9,28.22,NW,315,4.0,8.0,91,0.00,,,0.35,meteohub,2013-06-15 03:27:00,
2013-06-14 23:32:00,57.2,54.7,28.23,North,0,2.0,8.0,91,0.00,,,0.35,meteohub,2013-06-15 03:32:00,
2013-06-14 23:37:00,57.2,54.7,28.23,West,270,3.0,8.0,91,0.00,,,0.35,meteohub,2013-06-15 03:37:00,
2013-06-14 23:42:00,56.8,54.5,28.23,NW,315,2.0,5.0,92,0.00,,,0.35,meteohub,2013-06-15 03:42:00,
2013-06-14 23:47:00,56.7,54.3,28.23,North,0,0.0,5.0,92,0.00,,,0.35,meteohub,2013-06-15 03:47:00,
2013-06-14 23:52:00,56.3,54.0,28.23,North,0,0.0,3.0,92,0.00,,,0.35,meteohub,2013-06-15 03:52:00,
2013-06-14 23:57:00,56.1,53.8,28.23,West,270,1.0,2.0,92,0.00,,,0.35,meteohub,2013-06-15 03:57:00,